EW5800 Weather Reports


Display with metric or nautical units.
time (UTC)temp
F
wind
direction
speed
MPH
gust
MPH
rain 1hr
in
rain 24hr
in
rain mn
in
humidity
%
barometer
mb
20260507014551 59 222 0.0 0.0 0.00 0.00 0.00 73 1018.4
20260507013048 59 63 0.0 0.0 0.00 0.00 0.00 74 1018.4
20260507011543 59 116 0.0 0.0 0.00 0.00 0.00 74 1018.5
20260507010041 59 108 0.0 0.0 0.00 0.00 0.00 73 1018.6
20260507004545 59 160 0.0 0.0 0.00 0.00 0.00 74 1018.7
20260507003040 60 65 0.0 1.0 0.00 0.00 0.00 73 1018.6
20260507001547 60 239 0.0 2.0 0.00 0.00 0.00 73 1018.5
20260507000037 60 191 0.0 1.0 0.00 0.00 0.00 73 1018.5
20260506234536 60 166 0.0 1.0 0.00 0.00 0.00 73 1018.5
20260506233037 59 124 0.0 2.0 0.00 0.00 0.00 73 1018.4
20260506231534 59 77 0.0 4.0 0.00 0.00 0.00 76 1018.4
20260506230036 59 47 1.0 5.0 0.00 0.00 0.00 75 1018.5
20260506224534 59 30 0.0 4.0 0.00 0.00 0.00 77 1018.7
20260506223018 60 228 0.0 1.0 0.00 0.00 0.00 75 1018.6
20260506221515 59 106 0.0 3.0 0.00 0.00 0.00 76 1018.7
20260506220028 59 17 0.0 1.0 0.00 0.00 0.00 77 1018.7
20260506214512 59 128 0.0 1.0 0.00 0.00 0.00 77 1018.8
20260506213011 58 66 0.0 5.0 0.00 0.00 0.00 78 1018.7
20260506211521 59 204 0.0 4.0 0.00 0.00 0.00 78 1018.8
20260506210013 58 45 0.0 2.0 0.00 0.00 0.00 78 1018.9
20260506204510 59 198 0.0 3.0 0.00 0.00 0.00 77 1019.0
20260506203018 59 56 0.0 5.0 0.00 0.00 0.00 77 1019.0
20260506201508 59 88 0.0 2.0 0.00 0.00 0.00 78 1019.0
20260506200007 59 58 0.0 3.0 0.00 0.00 0.00 78 1018.9
20260506194505 58 109 0.0 4.0 0.00 0.00 0.00 78 1018.9
20260506193004 58 65 0.0 9.0 0.00 0.00 0.00 79 1019.0
20260506191502 58 67 0.0 6.0 0.00 0.00 0.00 80 1019.0
20260506190004 58 56 0.0 5.0 0.00 0.00 0.00 81 1018.9
20260506184501 58 133 0.0 4.0 0.00 0.00 0.00 79 1018.9
20260506183123 59 200 0.0 0.0 0.00 0.00 0.00 78 1018.8
20260506181603 58 157 0.0 4.0 0.00 0.00 0.00 78 1018.8
20260506180115 58 101 0.0 4.0 0.00 0.00 0.00 81 1018.6
20260506174555 56 87 0.0 4.0 0.00 0.00 0.00 82 1018.7
20260506173121 57 148 0.0 5.0 0.00 0.00 0.00 83 1018.6
20260506171553 56 66 0.0 4.0 0.00 0.00 0.00 83 1018.6
20260506170051 56 67 0.0 5.0 0.00 0.00 0.00 82 1018.6
20260506164549 56 60 1.0 6.0 0.00 0.00 0.00 82 1018.4
20260506163053 57 59 0.0 2.0 0.00 0.00 0.00 82 1018.3
20260506161554 56 67 1.0 6.0 0.00 0.00 0.00 83 1018.2
20260506160045 56 44 1.0 5.0 0.00 0.00 0.00 84 1018.3
20260506154547 55 120 0.0 0.0 0.00 0.00 0.00 84 1018.3
20260506153044 55 96 0.0 1.0 0.00 0.00 0.00 85 1018.3
20260506151546 55 126 0.0 1.0 0.00 0.00 0.00 85 1018.2
20260506150043 55 173 0.0 4.0 0.00 0.00 0.00 86 1018.2
20260506144558 55 56 0.0 6.0 0.00 0.00 0.00 86 1017.9
20260506143037 54 52 0.0 4.0 0.00 0.00 0.00 86 1017.6
20260506141537 54 51 0.0 3.0 0.00 0.00 0.00 86 1017.4
20260506140034 54 68 0.0 4.0 0.00 0.00 0.00 87 1017.5
20260506134532 54 130 0.0 2.0 0.00 0.00 0.00 87 1017.2
20260506133037 54 165 0.0 4.0 0.00 0.00 0.00 87 1017.2
20260506131530 54 129 0.0 1.0 0.00 0.00 0.00 87 1017.0
20260506130028 54 63 0.0 3.0 0.00 0.00 0.00 87 1017.0
20260506124525 54 289 0.0 2.0 0.00 0.00 0.00 87 1016.8
20260506123023 54 142 0.0 1.0 0.00 0.00 0.00 87 1016.6
20260506121526 55 139 0.0 4.0 0.00 0.00 0.00 86 1016.6
20260506120027 55 138 0.0 6.0 0.00 0.00 0.00 85 1016.5
20260506114519 55 84 0.0 1.0 0.00 0.00 0.00 85 1016.6
20260506113018 55 196 0.0 0.0 0.00 0.00 0.00 86 1016.5
20260506111513 56 33 0.0 3.0 0.00 0.00 0.00 85 1016.2
20260506110014 56 70 0.0 4.0 0.00 0.00 0.00 85 1016.0
20260506104509 56 65 0.0 0.0 0.00 0.00 0.00 85 1015.9
20260506103006 56 64 0.0 1.0 0.00 0.00 0.00 85 1015.9
20260506101505 56 65 0.0 3.0 0.00 0.00 0.00 84 1015.8
20260506100003 56 75 0.0 7.0 0.00 0.00 0.00 84 1015.5
20260506094615 56 63 0.0 4.0 0.00 0.00 0.00 84 1015.3
20260506093059 56 58 0.0 4.0 0.00 0.00 0.00 84 1015.3
20260506091553 56 52 0.0 6.0 0.00 0.00 0.00 85 1015.2
20260506090049 56 41 0.0 3.0 0.00 0.00 0.00 85 1015.1
20260506084551 55 67 0.0 2.0 0.00 0.00 0.00 87 1015.0
20260506083055 55 53 0.0 1.0 0.00 0.00 0.00 87 1014.9
20260506081544 55 220 0.0 0.0 0.00 0.00 0.00 89 1015.0
20260506073042 55 225 0.0 0.0 0.00 0.00 0.00 89 1014.6
20260506071537 55 225 0.0 0.0 0.00 0.00 0.00 87 1014.4
20260506061532 56 91 0.0 0.0 0.00 0.00 0.00 85 1014.2
20260506044601 58 177 0.0 0.0 0.00 0.00 0.00 82 1013.6
20260506043101 58 178 0.0 0.0 0.00 0.00 0.00 82 1013.4
20260506041557 58 178 0.0 0.0 0.00 0.00 0.00 81 1013.4
20260506040054 58 178 0.0 0.0 0.00 0.00 0.00 80 1013.2
20260506040008 58 178 0.0 0.0 0.00 0.00 0.00 80 1013.2
20260506034557 59 177 0.0 0.0 0.00 0.00 0.00 78 1013.0
20260506033106 60 178 0.0 0.0 0.00 0.00 0.00 76 1012.9
20260506031553 60 176 0.0 0.0 0.00 0.00 0.00 75 1012.8
20260506030059 61 226 0.0 1.0 0.00 0.00 0.00 73 1012.7
20260506024605 62 162 0.0 0.0 0.00 0.00 0.00 72 1012.7
20260506023052 62 110 0.0 5.0 0.00 0.00 0.00 71 1012.7
20260506021557 62 146 0.0 1.0 0.00 0.00 0.00 71 1012.7
20260506020049 62 158 0.0 0.0 0.00 0.00 0.00 71 1012.7